Погода в Мокрой Савалеевке

Россия / Республика Татарстан     54°56′13″N   48°00′18″E
темп.,
°C
ветер,
м/с
пор.,
м/с
влажн.,
%
обл.,
%
осадки,
мм/ч
давл.,
гПа
погр.,
м
18 апреля, вс
вс1800:00+6св510684 0.0 1022240
03:00+4св38760 0.0 1022168
06:00+4св410744 0.0 1022248
09:00+10всв57530 0.0 1022678
12:00+13всв67403 0.0 10211283
15:00+14всв77395 0.0 10211617
18:00+12всв584788 0.0 1022966
21:00+7всв81363100 0.0 1024718
19 апреля, пн
пн1900:00+4всв71350100 0.0 1025495
03:00+3всв6136198 0.0 1025454
06:00+2всв8146496 0.0 1026597
09:00+3всв91251100 0.0 1027795
12:00+6в91149100 0.0 10271258
15:00+7в8115097 0.0 10261442
18:00+7в61157100 0.0 10271318
21:00+6в51159100 0.0 10281047
20 апреля, вт
вт2000:00+4в7134685 0.0 1029589
03:00+2в612565 0.0 1030373
06:00+2вюв613625 0.0 1031499
09:00+6вюв810380 0.0 1031937
12:00+8вюв810300 0.0 10301394
15:00+9юв8926100 0.0 10301534
18:00+8вюв71132100 0.0 10281316
21:00+6вюв71539100 0.0 1028717
21 апреля, ср
ср2100:00+4юв81644100 0.0 1027768
03:00+4юв91746100 0.0 1027811
06:00+3юв101849100 0.0 1025730
09:00+4юв111946100 0.0 1025828
12:00+4ююв91753100 0.4 10251002
15:00+3ююв101874100 1.3 1025882
18:00+3ююв91887100 2.3 1025834
21:00+3ююв81691100 4.1 1025755
22 апреля, чт
чт2200:00+3ююв71494100 0.4 1025665
03:00+3ююв61294100 0.5 1026499
06:00+4ююв61293100 0.0 1026459
09:00+5ююв61089100 0.0 1027461
12:00+7ююв6885100 0.0 1028599
15:00+6ююв6989100 0.1 1028450
18:00+7ююв6988100 0.0 1029479
21:00+5ююв4894100 0.1 1029295